Change the Weather History Date:

Thursday, July 10, 2014

  Actual Average Record
Temperature  
Mean Temperature 80 °F 81 °F  
Max Temperature 96 °F 97 °F 107 °F (1948)
Min Temperature 63 °F 66 °F 57 °F (2005)
Cooling Degree Days 14    
Growing Degree Days 30 (Base 50)    
Moisture  
Dew Point 52 °F    
Average Humidity 49    
Maximum Humidity 78    
Minimum Humidity 19    
Precipitation  
Precipitation 0.03 in 0.07 in 1.25 in (2008)
Month to date precipitation 0.27 0.59  
Year to date precipitation 0.87 3.70  
Sea Level Pressure  
Sea Level Pressure 29.77 in    
Wind  
Wind Speed 6 mph (WSW)    
Max Wind Speed 16 mph    
Max Gust Speed 21 mph    
Visibility 10 miles    
Events Rain    
T = Trace of Precipitation, MM = Missing Value Source: NWS Daily Summary

Daily Weather History Graph

Daily Weather History Graph

Search for Another Location

Airport or City:

Trip Planner

Search our weather history database for the weather conditions in past years. The results will help you decide how hot, cold, wet, or windy it might be!

Date:

Astronomy

Jul. 10, 2014 Rise Set
Actual Time 6:12 AM MDT 8:20 PM MDT
Civil Twilight 5:44 AM MDT 8:48 PM MDT
Nautical Twilight 5:10 AM MDT 9:22 PM MDT
Astronomical Twilight 4:33 AM MDT 9:58 PM MDT
Moon 6:39 PM MDT (7/10) 4:23 AM MDT (7/10)
Length of Visible Light 15h 04m
Length of Day
14h 08m
Waxing Gibbous, 96% of the Moon is Illuminated
Jul 10
Waxing Gibbous
Jul 12
Full
Jul 18
Last Quarter
Jul 26
New
Aug 3
First Quarter

Hourly Weather History & Observations

Time (MDT) Temp. Heat Index Dew Point Humidity Pressure Visibility Wind Dir Wind Speed Gust Speed Precip Events Conditions
12:53 AM 75.0 °F - 54.0 °F 48% 29.80 in 10.0 mi WNW 8.1 mph - N/A   Mostly Cloudy
2:53 AM 71.1 °F - 55.9 °F 59% 29.78 in 10.0 mi SSW 5.8 mph - N/A   Partly Cloudy
4:53 AM 66.0 °F - 57.9 °F 75% 29.79 in 10.0 mi WNW 4.6 mph - N/A   Clear
5:53 AM 64.0 °F - 57.0 °F 78% 29.82 in 10.0 mi South 3.5 mph - N/A   Clear
7:53 AM 73.0 °F - 55.9 °F 55% 29.83 in 10.0 mi NE 6.9 mph - N/A   Clear
8:53 AM 80.1 °F 80.1 °F 55.0 °F 42% 29.84 in 10.0 mi ENE 10.4 mph - N/A   Clear
9:53 AM 84.0 °F 82.6 °F 54.0 °F 35% 29.83 in 10.0 mi ENE 11.5 mph 16.1 mph N/A   Clear
10:53 AM 86.0 °F - 52.0 °F 31% 29.83 in 10.0 mi ENE 8.1 mph 18.4 mph N/A   Clear
11:53 AM 91.0 °F - 51.1 °F 25% 29.81 in 10.0 mi East 6.9 mph - N/A   Clear
12:53 PM 93.0 °F - 48.9 °F 22% 29.78 in 10.0 mi ENE 3.5 mph - N/A   Clear
1:53 PM 93.0 °F - 48.9 °F 22% 29.76 in 10.0 mi Variable 6.9 mph - N/A   Mostly Cloudy
2:53 PM 93.0 °F - 48.0 °F 21% 29.73 in 10.0 mi ENE 5.8 mph - N/A   Mostly Cloudy
3:53 PM 95.0 °F - 46.9 °F 19% 29.72 in 10.0 mi SSE 5.8 mph - N/A   Clear
4:53 PM 91.9 °F - 46.9 °F 21% 29.71 in 10.0 mi WSW 5.8 mph - 0.00 in   Clear
5:53 PM 93.0 °F - 46.0 °F 20% 29.70 in 10.0 mi West 5.8 mph - N/A   Clear
6:53 PM 93.0 °F - 46.0 °F 20% 29.70 in 10.0 mi West 4.6 mph - N/A   Clear
7:53 PM 90.0 °F - 48.0 °F 24% 29.70 in 10.0 mi West 3.5 mph - N/A   Clear
8:53 PM 80.1 °F 80.9 °F 60.1 °F 50% 29.75 in 9.0 mi West 15.0 mph - 0.02 in Rain Light Rain
9:53 PM 82.9 °F 82.0 °F 55.0 °F 38% 29.75 in 10.0 mi Calm Calm - 0.00 in Rain Light Rain
10:53 PM 80.1 °F 80.4 °F 57.0 °F 45% 29.78 in 10.0 mi South 8.1 mph - 0.01 in   Overcast
11:53 PM 79.0 °F - 57.9 °F 48% 29.78 in 10.0 mi West 3.5 mph - N/A   Mostly Cloudy